| time (UTC) | temp C | wind direction | speed KPH | gust KPH | rain 1hr cm | rain 24hr cm | rain mn cm | humidity % | barometer mb |
| 20260510142629 | 14 | 0 | 25.7 | 40.2 | 0.00 | 0.00 | 0.00 | 80 | 1015.2 |
| 20260510142130 | 14 | 0 | 24.1 | 38.6 | 0.00 | 0.00 | 0.00 | 80 | 1015.3 |
| 20260510141627 | 15 | 0 | 24.1 | 46.7 | 0.00 | 0.00 | 0.00 | 79 | 1015.3 |
| 20260510141126 | 15 | 0 | 24.1 | 46.7 | 0.00 | 0.00 | 0.00 | 79 | 1015.2 |
| 20260510140624 | 15 | 0 | 24.1 | 38.6 | 0.00 | 0.00 | 0.00 | 78 | 1015.1 |
| 20260510140123 | 15 | 0 | 25.7 | 41.8 | 0.00 | 0.00 | 0.00 | 78 | 1014.9 |
| 20260510135621 | 15 | 0 | 24.1 | 41.8 | 0.00 | 0.00 | 0.00 | 78 | 1014.9 |
| 20260510135121 | 15 | 0 | 24.1 | 40.2 | 0.00 | 0.00 | 0.00 | 78 | 1014.6 |
| 20260510134620 | 15 | 0 | 22.5 | 38.6 | 0.00 | 0.00 | 0.00 | 78 | 1014.4 |
| 20260510134120 | 15 | 0 | 22.5 | 41.8 | 0.00 | 0.00 | 0.00 | 78 | 1014.4 |
| 20260510133618 | 15 | 0 | 22.5 | 41.8 | 0.00 | 0.00 | 0.00 | 78 | 1014.3 |
| 20260510133118 | 16 | 0 | 19.3 | 35.4 | 0.00 | 0.00 | 0.00 | 78 | 1014.3 |
| 20260510132617 | 16 | 0 | 20.9 | 33.8 | 0.00 | 0.00 | 0.00 | 79 | 1014.0 |
| 20260510132118 | 16 | 0 | 19.3 | 33.8 | 0.00 | 0.00 | 0.00 | 78 | 1013.9 |
| 20260510131616 | 16 | 0 | 19.3 | 30.6 | 0.00 | 0.00 | 0.00 | 78 | 1013.7 |
| 20260510131348 | 16 | 0 | 17.7 | 30.6 | 0.00 | 0.00 | 0.00 | 78 | 1013.4 |
| 20260510130614 | 16 | 0 | 16.1 | 30.6 | 0.00 | 0.00 | 0.00 | 78 | 1013.3 |
| 20260510130112 | 16 | 0 | 17.7 | 29.0 | 0.00 | 0.00 | 0.00 | 78 | 1013.3 |
| 20260510125616 | 16 | 0 | 17.7 | 33.8 | 0.00 | 0.00 | 0.00 | 78 | 1013.0 |
| 20260510125610 | 16 | 0 | 16.1 | 29.0 | 0.00 | 0.00 | 0.00 | 78 | 1013.1 |
| 20260510124602 | 16 | 0 | 19.3 | 33.8 | 0.00 | 0.00 | 0.00 | 78 | 1012.8 |
| 20260510124100 | 16 | 0 | 16.1 | 30.6 | 0.00 | 0.00 | 0.00 | 79 | 1012.6 |
| 20260510123601 | 16 | 0 | 14.5 | 27.4 | 0.00 | 0.00 | 0.00 | 79 | 1012.3 |
| 20260510123058 | 16 | 0 | 14.5 | 24.1 | 0.00 | 0.00 | 0.00 | 80 | 1012.3 |
| 20260510122553 | 16 | 0 | 14.5 | 33.8 | 0.00 | 0.00 | 0.00 | 80 | 1012.1 |
| 20260510122050 | 16 | 0 | 16.1 | 33.8 | 0.00 | 0.00 | 0.00 | 80 | 1012.0 |
| 20260510121821 | 16 | 0 | 16.1 | 29.0 | 0.00 | 0.00 | 0.00 | 80 | 1011.6 |
| 20260510121047 | 16 | 0 | 17.7 | 30.6 | 0.00 | 0.00 | 0.00 | 80 | 1011.8 |
| 20260510120544 | 16 | 0 | 17.7 | 30.6 | 0.00 | 0.00 | 0.00 | 80 | 1011.7 |
| 20260510120045 | 16 | 0 | 16.1 | 27.4 | 0.00 | 0.00 | 0.00 | 80 | 1011.8 |
| 20260510115811 | 16 | 0 | 16.1 | 29.0 | 0.00 | 0.00 | 0.00 | 80 | 1011.7 |
| 20260510115309 | 16 | 0 | 16.1 | 29.0 | 0.00 | 0.00 | 0.00 | 80 | 1011.4 |
| 20260510114538 | 16 | 0 | 17.7 | 32.2 | 0.00 | 0.00 | 0.00 | 80 | 1011.1 |
| 20260510114534 | 16 | 0 | 17.7 | 32.2 | 0.00 | 0.00 | 0.00 | 80 | 1011.4 |
| 20260510113535 | 16 | 0 | 16.1 | 25.7 | 0.00 | 0.00 | 0.00 | 80 | 1011.1 |
| 20260510113307 | 16 | 0 | 16.1 | 37.0 | 0.00 | 0.00 | 0.00 | 79 | 1011.1 |
| 20260510112533 | 16 | 0 | 16.1 | 37.0 | 0.00 | 0.00 | 0.00 | 79 | 1010.9 |
| 20260510112305 | 16 | 0 | 14.5 | 24.1 | 0.00 | 0.00 | 0.00 | 79 | 1010.9 |
| 20260510111535 | 16 | 0 | 17.7 | 29.0 | 0.00 | 0.00 | 0.00 | 78 | 1010.6 |
| 20260510111530 | 16 | 0 | 14.5 | 25.7 | 0.00 | 0.00 | 0.00 | 78 | 1010.6 |
| 20260510110531 | 16 | 0 | 16.1 | 29.0 | 0.00 | 0.00 | 0.00 | 78 | 1010.6 |
| 20260510110028 | 16 | 0 | 14.5 | 27.4 | 0.00 | 0.00 | 0.00 | 77 | 1010.6 |
| 20260510105520 | 16 | 0 | 14.5 | 22.5 | 0.00 | 0.00 | 0.00 | 77 | 1010.5 |
| 20260510105017 | 16 | 0 | 14.5 | 22.5 | 0.00 | 0.00 | 0.00 | 77 | 1010.5 |
| 20260510104518 | 16 | 0 | 12.9 | 22.5 | 0.00 | 0.00 | 0.00 | 76 | 1010.5 |
| 20260510104019 | 16 | 0 | 11.3 | 19.3 | 0.00 | 0.00 | 0.00 | 76 | 1010.5 |
| 20260510103516 | 16 | 0 | 12.9 | 22.5 | 0.00 | 0.00 | 0.00 | 75 | 1010.2 |
| 20260510103015 | 16 | 0 | 12.9 | 22.5 | 0.00 | 0.00 | 0.00 | 75 | 1010.2 |
| 20260510102513 | 16 | 0 | 14.5 | 24.1 | 0.00 | 0.00 | 0.00 | 75 | 1010.1 |
| 20260510102013 | 16 | 0 | 14.5 | 24.1 | 0.00 | 0.00 | 0.00 | 75 | 1010.3 |
| 20260510101512 | 16 | 0 | 12.9 | 20.9 | 0.00 | 0.00 | 0.00 | 75 | 1010.2 |
| 20260510101242 | 16 | 0 | 12.9 | 22.5 | 0.00 | 0.00 | 0.00 | 75 | 1010.0 |
| 20260510100510 | 16 | 0 | 12.9 | 22.5 | 0.00 | 0.00 | 0.00 | 74 | 1009.9 |
| 20260510100009 | 17 | 0 | 11.3 | 19.3 | 0.00 | 0.00 | 0.00 | 75 | 1009.7 |
| 20260510095509 | 17 | 0 | 11.3 | 19.3 | 0.00 | 0.00 | 0.00 | 74 | 1009.5 |
| 20260510095004 | 17 | 0 | 11.3 | 17.7 | 0.00 | 0.00 | 0.00 | 74 | 1009.4 |
| 20260510094502 | 17 | 0 | 11.3 | 17.7 | 0.00 | 0.00 | 0.00 | 74 | 1009.2 |
| 20260510094003 | 17 | 0 | 11.3 | 17.7 | 0.00 | 0.00 | 0.00 | 74 | 1008.8 |
| 20260510093459 | 17 | 0 | 9.7 | 17.7 | 0.00 | 0.00 | 0.00 | 73 | 1008.6 |
| 20260510092959 | 17 | 0 | 9.7 | 19.3 | 0.00 | 0.00 | 0.00 | 73 | 1008.6 |
| 20260510092727 | 18 | 0 | 9.7 | 19.3 | 0.00 | 0.00 | 0.00 | 73 | 1008.5 |
| 20260510091952 | 18 | 0 | 9.7 | 17.7 | 0.00 | 0.00 | 0.00 | 73 | 1008.5 |
| 20260510091445 | 18 | 0 | 11.3 | 19.3 | 0.00 | 0.00 | 0.00 | 73 | 1008.4 |
| 20260510090946 | 18 | 0 | 11.3 | 19.3 | 0.00 | 0.00 | 0.00 | 73 | 1008.3 |
| 20260510090445 | 18 | 0 | 9.7 | 19.3 | 0.00 | 0.00 | 0.00 | 73 | 1008.3 |
| 20260510085944 | 18 | 0 | 9.7 | 17.7 | 0.00 | 0.00 | 0.00 | 73 | 1008.3 |
| 20260510085444 | 18 | 0 | 9.7 | 17.7 | 0.00 | 0.00 | 0.00 | 72 | 1008.1 |
| 20260510085217 | 18 | 0 | 9.7 | 17.7 | 0.00 | 0.00 | 0.00 | 72 | 1008.0 |
| 20260510084437 | 18 | 0 | 11.3 | 19.3 | 0.00 | 0.00 | 0.00 | 72 | 1008.0 |
| 20260510083937 | 18 | 0 | 11.3 | 19.3 | 0.00 | 0.00 | 0.00 | 72 | 1008.0 |
| 20260510083432 | 18 | 0 | 9.7 | 19.3 | 0.00 | 0.00 | 0.00 | 72 | 1008.1 |
| 20260510083204 | 18 | 0 | 9.7 | 16.1 | 0.00 | 0.00 | 0.00 | 72 | 1008.2 |
| 20260510082427 | 18 | 0 | 9.7 | 17.7 | 0.00 | 0.00 | 0.00 | 71 | 1008.2 |
| 20260510081925 | 18 | 0 | 11.3 | 17.7 | 0.00 | 0.00 | 0.00 | 71 | 1008.0 |
| 20260510081425 | 18 | 0 | 11.3 | 17.7 | 0.00 | 0.00 | 0.00 | 71 | 1008.2 |
| 20260510080925 | 19 | 0 | 11.3 | 17.7 | 0.00 | 0.00 | 0.00 | 70 | 1008.4 |
| 20260510080655 | 19 | 0 | 9.7 | 17.7 | 0.00 | 0.00 | 0.00 | 70 | 1008.5 |
| 20260510075923 | 19 | 0 | 11.3 | 24.1 | 0.00 | 0.00 | 0.00 | 69 | 1008.5 |
| 20260510075422 | 19 | 0 | 14.5 | 24.1 | 0.00 | 0.00 | 0.00 | 69 | 1008.4 |
| 20260510074918 | 20 | 0 | 14.5 | 22.5 | 0.00 | 0.00 | 0.00 | 68 | 1008.3 |
| 20260510074417 | 20 | 0 | 12.9 | 19.3 | 0.00 | 0.00 | 0.00 | 67 | 1008.3 |
| 20260510073916 | 20 | 0 | 11.3 | 17.7 | 0.00 | 0.00 | 0.00 | 66 | 1008.3 |
| 20260510073412 | 20 | 0 | 11.3 | 19.3 | 0.00 | 0.00 | 0.00 | 66 | 1008.1 |
| 20260510072909 | 20 | 0 | 12.9 | 22.5 | 0.00 | 0.00 | 0.00 | 65 | 1007.9 |
| 20260510072410 | 20 | 0 | 14.5 | 22.5 | 0.00 | 0.00 | 0.00 | 63 | 1007.9 |
| 20260510071909 | 20 | 0 | 12.9 | 22.5 | 0.00 | 0.00 | 0.00 | 63 | 1007.8 |
| 20260510071410 | 21 | 0 | 12.9 | 27.4 | 0.00 | 0.00 | 0.00 | 63 | 1007.8 |
| 20260510070907 | 21 | 0 | 12.9 | 27.4 | 0.00 | 0.00 | 0.00 | 62 | 1007.8 |
| 20260510070406 | 21 | 0 | 12.9 | 24.1 | 0.00 | 0.00 | 0.00 | 61 | 1007.7 |
| 20260510065905 | 21 | 0 | 12.9 | 27.4 | 0.00 | 0.00 | 0.00 | 59 | 1007.7 |
| 20260510065406 | 21 | 0 | 12.9 | 27.4 | 0.00 | 0.00 | 0.00 | 57 | 1008.0 |
| 20260510064854 | 22 | 0 | 12.9 | 25.7 | 0.00 | 0.00 | 0.00 | 56 | 1008.2 |
| 20260510064350 | 22 | 0 | 12.9 | 24.1 | 0.00 | 0.00 | 0.00 | 54 | 1008.2 |
| 20260510063847 | 22 | 0 | 12.9 | 24.1 | 0.00 | 0.00 | 0.00 | 50 | 1008.1 |
| 20260510063344 | 23 | 0 | 12.9 | 22.5 | 0.00 | 0.00 | 0.00 | 46 | 1008.3 |
| 20260510063116 | 23 | 0 | 12.9 | 24.1 | 0.00 | 0.00 | 0.00 | 44 | 1008.3 |
| 20260510062614 | 23 | 0 | 14.5 | 24.1 | 0.00 | 0.00 | 0.00 | 41 | 1007.9 |
| 20260510061844 | 24 | 53 | 14.5 | 24.1 | 0.00 | 0.00 | 0.00 | 37 | 1008.0 |
| 20260510061341 | 24 | 0 | 12.9 | 20.9 | 0.00 | 0.00 | 0.00 | 25 | 1007.9 |
| 20260510060841 | 25 | 0 | 11.3 | 24.1 | 0.00 | 0.00 | 0.00 | 24 | 1007.7 |
| 20260510060341 | 25 | 60 | 11.3 | 24.1 | 0.00 | 0.00 | 0.00 | 21 | 1007.4 |
| 20260510055844 | 25 | 0 | 8.0 | 17.7 | 0.00 | 0.00 | 0.00 | 20 | 1007.4 |
| 20260510055839 | 25 | 57 | 4.8 | 11.3 | 0.00 | 0.00 | 0.00 | 20 | 1007.1 |
| 20260510054836 | 25 | 60 | 6.4 | 12.9 | 0.00 | 0.00 | 0.00 | 19 | 1007.0 |
| 20260510054335 | 25 | 61 | 6.4 | 14.5 | 0.00 | 0.00 | 0.00 | 19 | 1007.0 |
| 20260510053835 | 25 | 0 | 8.0 | 14.5 | 0.00 | 0.00 | 0.00 | 19 | 1006.9 |
| 20260510053333 | 26 | 51 | 6.4 | 12.9 | 0.00 | 0.00 | 0.00 | 19 | 1006.8 |
| 20260510052833 | 26 | 0 | 4.8 | 9.7 | 0.00 | 0.00 | 0.00 | 19 | 1006.8 |
| 20260510052334 | 26 | 0 | 4.8 | 8.0 | 0.00 | 0.00 | 0.00 | 19 | 1006.7 |
| 20260510051831 | 26 | 0 | 4.8 | 8.0 | 0.00 | 0.00 | 0.00 | 19 | 1006.8 |
| 20260510051330 | 26 | 0 | 3.2 | 6.4 | 0.00 | 0.00 | 0.00 | 19 | 1006.9 |
| 20260510050830 | 26 | 29 | 3.2 | 16.1 | 0.00 | 0.00 | 0.00 | 19 | 1007.0 |
| 20260510050329 | 27 | 37 | 3.2 | 16.1 | 0.00 | 0.00 | 0.00 | 19 | 1007.0 |
| 20260510045828 | 27 | 37 | 1.6 | 4.8 | 0.00 | 0.00 | 0.00 | 18 | 1007.0 |
| 20260510045559 | 27 | 22 | 3.2 | 6.4 | 0.00 | 0.00 | 0.00 | 18 | 1007.2 |
| 20260510044826 | 27 | 20 | 4.8 | 8.0 | 0.00 | 0.00 | 0.00 | 18 | 1007.3 |
| 20260510044550 | 27 | 18 | 6.4 | 11.3 | 0.00 | 0.00 | 0.00 | 18 | 1007.2 |
| 20260510043818 | 27 | 17 | 6.4 | 11.3 | 0.00 | 0.00 | 0.00 | 18 | 1007.2 |
| 20260510043318 | 27 | 12 | 6.4 | 12.9 | 0.00 | 0.00 | 0.00 | 18 | 1007.2 |
| 20260510042815 | 27 | 0 | 6.4 | 12.9 | 0.00 | 0.00 | 0.00 | 18 | 1007.3 |
| 20260510042313 | 27 | 17 | 4.8 | 9.7 | 0.00 | 0.00 | 0.00 | 18 | 1007.3 |
| 20260510041812 | 27 | 0 | 6.4 | 11.3 | 0.00 | 0.00 | 0.00 | 17 | 1007.3 |
| 20260510041313 | 27 | 18 | 8.0 | 14.5 | 0.00 | 0.00 | 0.00 | 18 | 1007.3 |
| 20260510040814 | 27 | 357 | 8.0 | 14.5 | 0.00 | 0.00 | 0.00 | 18 | 1007.4 |
| 20260510040314 | 27 | 357 | 8.0 | 16.1 | 0.00 | 0.00 | 0.00 | 18 | 1007.4 |
| 20260510035810 | 27 | 349 | 9.7 | 17.7 | 0.00 | 0.00 | 0.00 | 18 | 1007.3 |
| 20260510035306 | 27 | 0 | 12.9 | 25.7 | 0.00 | 0.00 | 0.00 | 18 | 1007.0 |
| 20260510034807 | 27 | 353 | 11.3 | 25.7 | 0.00 | 0.00 | 0.00 | 18 | 1006.8 |
| 20260510034307 | 27 | 43 | 9.7 | 20.9 | 0.00 | 0.00 | 0.00 | 18 | 1006.8 |
| 20260510033808 | 27 | 354 | 9.7 | 17.7 | 0.00 | 0.00 | 0.00 | 18 | 1007.0 |
| 20260510033305 | 27 | 0 | 6.4 | 17.7 | 0.00 | 0.00 | 0.00 | 18 | 1007.1 |
| 20260510032802 | 27 | 0 | 4.8 | 9.7 | 0.00 | 0.00 | 0.00 | 17 | 1007.0 |
| 20260510032301 | 27 | 0 | 3.2 | 9.7 | 0.00 | 0.00 | 0.00 | 16 | 1006.5 |
| 20260510031802 | 27 | 33 | 3.2 | 9.7 | 0.00 | 0.00 | 0.00 | 16 | 1006.4 |
| 20260510031259 | 27 | 37 | 4.8 | 9.7 | 0.00 | 0.00 | 0.00 | 16 | 1006.4 |
| 20260510030756 | 27 | 30 | 8.0 | 17.7 | 0.00 | 0.00 | 0.00 | 16 | 1006.3 |
| 20260510030521 | 27 | 38 | 6.4 | 17.7 | 0.00 | 0.00 | 0.00 | 16 | 1006.3 |
| 20260510025750 | 26 | 321 | 4.8 | 11.3 | 0.00 | 0.00 | 0.00 | 15 | 1006.2 |
| 20260510025252 | 27 | 247 | 3.2 | 9.7 | 0.00 | 0.00 | 0.00 | 15 | 1006.3 |
| 20260510024748 | 27 | 236 | 3.2 | 8.0 | 0.00 | 0.00 | 0.00 | 14 | 1006.2 |
| 20260510024234 | 27 | 236 | 1.6 | 6.4 | 0.00 | 0.00 | 0.00 | 14 | 1006.0 |
| 20260510023735 | 27 | 237 | 0.0 | 3.2 | 0.00 | 0.00 | 0.00 | 14 | 1005.7 |
| 20260510023725 | 27 | 238 | 0.0 | 3.2 | 0.00 | 0.00 | 0.00 | 14 | 1005.5 |
| 20260510022717 | 27 | 236 | 0.0 | 3.2 | 0.00 | 0.00 | 0.00 | 14 | 1005.4 |
| 20260510022220 | 27 | 233 | 1.6 | 6.4 | 0.00 | 0.00 | 0.00 | 13 | 1005.3 |
| 20260510022214 | 27 | 231 | 3.2 | 6.4 | 0.00 | 0.00 | 0.00 | 13 | 1005.3 |
| 20260510021214 | 27 | 231 | 4.8 | 8.0 | 0.00 | 0.00 | 0.00 | 13 | 1005.3 |
| 20260510020701 | 28 | 231 | 6.4 | 9.7 | 0.00 | 0.00 | 0.00 | 13 | 1005.3 |
| 20260510020158 | 28 | 233 | 6.4 | 9.7 | 0.00 | 0.00 | 0.00 | 13 | 1005.1 |
| 20260510015637 | 28 | 233 | 6.4 | 14.5 | 0.00 | 0.00 | 0.00 | 13 | 1005.2 |
| 20260510015135 | 28 | 234 | 8.0 | 14.5 | 0.00 | 0.00 | 0.00 | 12 | 1005.2 |
| 20260510014634 | 29 | 237 | 6.4 | 14.5 | 0.00 | 0.00 | 0.00 | 11 | 1005.1 |
| 20260510014402 | 30 | 227 | 1.6 | 14.5 | 0.00 | 0.00 | 0.00 | 12 | 1005.2 |
| 20260510013631 | 30 | 356 | 1.6 | 4.8 | 0.00 | 0.00 | 0.00 | 11 | 1004.9 |
| 20260510013401 | 30 | 0 | 1.6 | 4.8 | 0.00 | 0.00 | 0.00 | 11 | 1004.9 |
| 20260510012631 | 30 | 0 | 0.0 | 3.2 | 0.00 | 0.00 | 0.00 | 11 | 1004.7 |
| 20260510012130 | 31 | 0 | 0.0 | 1.6 | 0.00 | 0.00 | 0.00 | 10 | 1004.7 |
| 20260510011627 | 31 | 0 | 1.6 | 3.2 | 0.00 | 0.00 | 0.00 | 10 | 1004.5 |
| 20260510011112 | 31 | 0 | 3.2 | 6.4 | 0.00 | 0.00 | 0.00 | 10 | 1004.6 |
| 20260510010609 | 31 | 0 | 4.8 | 8.0 | 0.00 | 0.00 | 0.00 | 10 | 1004.6 |
| 20260510010108 | 31 | 0 | 4.8 | 8.0 | 0.00 | 0.00 | 0.00 | 10 | 1004.6 |
| 20260510005600 | 31 | 0 | 4.8 | 8.0 | 0.00 | 0.00 | 0.00 | 10 | 1004.6 |
| 20260510005058 | 32 | 0 | 4.8 | 11.3 | 0.00 | 0.00 | 0.00 | 9 | 1004.5 |
| 20260510004554 | 32 | 0 | 4.8 | 11.3 | 0.00 | 0.00 | 0.00 | 9 | 1004.6 |
| 20260510004053 | 32 | 0 | 4.8 | 9.7 | 0.00 | 0.00 | 0.00 | 9 | 1004.5 |
| 20260510003553 | 32 | 0 | 6.4 | 14.5 | 0.00 | 0.00 | 0.00 | 9 | 1004.6 |
| 20260510003050 | 32 | 0 | 6.4 | 14.5 | 0.00 | 0.00 | 0.00 | 9 | 1004.5 |
| 20260510002545 | 32 | 0 | 6.4 | 12.9 | 0.00 | 0.00 | 0.00 | 9 | 1004.5 |
| 20260510002046 | 32 | 0 | 8.0 | 14.5 | 0.00 | 0.00 | 0.00 | 9 | 1004.5 |
| 20260510001544 | 32 | 0 | 8.0 | 14.5 | 0.00 | 0.00 | 0.00 | 9 | 1004.5 |
| 20260510001041 | 32 | 0 | 8.0 | 16.1 | 0.00 | 0.00 | 0.00 | 9 | 1004.5 |
| 20260510000538 | 32 | 0 | 9.7 | 17.7 | 0.00 | 0.00 | 0.00 | 9 | 1004.5 |
| 20260510000038 | 32 | 0 | 9.7 | 19.3 | 0.00 | 0.00 | 0.00 | 9 | 1004.7 |
| 20260509235801 | 33 | 0 | 9.7 | 19.3 | 0.00 | 0.00 | 0.00 | 9 | 1004.7 |
| 20260509235031 | 33 | 0 | 8.0 | 14.5 | 0.00 | 0.00 | 0.00 | 8 | 1004.6 |
| 20260509234527 | 33 | 0 | 9.7 | 19.3 | 0.00 | 0.00 | 0.00 | 8 | 1004.7 |
| 20260509234024 | 33 | 0 | 9.7 | 19.3 | 0.00 | 0.00 | 0.00 | 8 | 1004.7 |
| 20260509233521 | 33 | 0 | 9.7 | 20.9 | 0.00 | 0.00 | 0.00 | 8 | 1004.7 |
| 20260509233022 | 33 | 0 | 8.0 | 20.9 | 0.00 | 0.00 | 0.00 | 8 | 1004.8 |
| 20260509232509 | 33 | 0 | 6.4 | 14.5 | 0.00 | 0.00 | 0.00 | 8 | 1004.8 |
| 20260509232241 | 33 | 0 | 6.4 | 16.1 | 0.00 | 0.00 | 0.00 | 8 | 1005.0 |
| 20260509231458 | 32 | 0 | 9.7 | 19.3 | 0.00 | 0.00 | 0.00 | 7 | 1005.1 |
| 20260509230959 | 32 | 0 | 14.5 | 22.5 | 0.00 | 0.00 | 0.00 | 8 | 1005.1 |
| 20260509230459 | 32 | 0 | 14.5 | 27.4 | 0.00 | 0.00 | 0.00 | 8 | 1005.1 |
| 20260509225957 | 32 | 0 | 12.9 | 27.4 | 0.00 | 0.00 | 0.00 | 8 | 1005.0 |
| 20260509225453 | 32 | 0 | 12.9 | 24.1 | 0.00 | 0.00 | 0.00 | 8 | 1004.9 |
| 20260509224953 | 32 | 0 | 16.1 | 25.7 | 0.00 | 0.00 | 0.00 | 8 | 1005.2 |
| 20260509224452 | 32 | 0 | 16.1 | 29.0 | 0.00 | 0.00 | 0.00 | 8 | 1005.2 |
| 20260509223949 | 33 | 0 | 14.5 | 29.0 | 0.00 | 0.00 | 0.00 | 8 | 1005.2 |
| 20260509223449 | 32 | 0 | 14.5 | 22.5 | 0.00 | 0.00 | 0.00 | 8 | 1005.3 |
| 20260509222948 | 32 | 0 | 14.5 | 22.5 | 0.00 | 0.00 | 0.00 | 9 | 1005.3 |
| 20260509222447 | 32 | 0 | 14.5 | 24.1 | 0.00 | 0.00 | 0.00 | 9 | 1005.5 |
| 20260509221944 | 32 | 0 | 12.9 | 24.1 | 0.00 | 0.00 | 0.00 | 9 | 1005.5 |
| 20260509221446 | 32 | 0 | 12.9 | 32.2 | 0.00 | 0.00 | 0.00 | 9 | 1005.5 |
| 20260509221215 | 32 | 0 | 14.5 | 32.2 | 0.00 | 0.00 | 0.00 | 9 | 1005.6 |
| 20260509220445 | 33 | 0 | 12.9 | 30.6 | 0.00 | 0.00 | 0.00 | 9 | 1005.6 |
| 20260509215943 | 33 | 0 | 12.9 | 27.4 | 0.00 | 0.00 | 0.00 | 9 | 1005.7 |
| 20260509215440 | 32 | 0 | 12.9 | 27.4 | 0.00 | 0.00 | 0.00 | 9 | 1005.7 |
| 20260509214939 | 32 | 0 | 11.3 | 25.7 | 0.00 | 0.00 | 0.00 | 8 | 1005.9 |
| 20260509214708 | 32 | 0 | 14.5 | 27.4 | 0.00 | 0.00 | 0.00 | 8 | 1006.0 |
| 20260509213937 | 32 | 0 | 16.1 | 27.4 | 0.00 | 0.00 | 0.00 | 8 | 1005.9 |
| 20260509213437 | 32 | 0 | 16.1 | 27.4 | 0.00 | 0.00 | 0.00 | 9 | 1006.0 |
| 20260509212935 | 32 | 0 | 16.1 | 30.6 | 0.00 | 0.00 | 0.00 | 8 | 1006.1 |
| 20260509212435 | 32 | 0 | 16.1 | 33.8 | 0.00 | 0.00 | 0.00 | 8 | 1006.1 |
| 20260509211934 | 32 | 0 | 16.1 | 33.8 | 0.00 | 0.00 | 0.00 | 9 | 1006.1 |
| 20260509211431 | 32 | 0 | 16.1 | 29.0 | 0.00 | 0.00 | 0.00 | 8 | 1006.3 |
| 20260509210931 | 32 | 0 | 19.3 | 37.0 | 0.00 | 0.00 | 0.00 | 7 | 1006.3 |
| 20260509210431 | 32 | 0 | 19.3 | 37.0 | 0.00 | 0.00 | 0.00 | 7 | 1006.6 |
| 20260509205930 | 32 | 0 | 16.1 | 32.2 | 0.00 | 0.00 | 0.00 | 7 | 1006.5 |
| 20260509205432 | 32 | 0 | 17.7 | 29.0 | 0.00 | 0.00 | 0.00 | 8 | 1006.6 |
| 20260509205200 | 32 | 0 | 16.1 | 25.7 | 0.00 | 0.00 | 0.00 | 9 | 1006.6 |
| 20260509204424 | 32 | 0 | 16.1 | 27.4 | 0.00 | 0.00 | 0.00 | 10 | 1006.7 |
| 20260509203923 | 32 | 0 | 16.1 | 27.4 | 0.00 | 0.00 | 0.00 | 10 | 1006.7 |
| 20260509203420 | 32 | 0 | 17.7 | 33.8 | 0.00 | 0.00 | 0.00 | 10 | 1006.6 |
| 20260509202920 | 32 | 0 | 17.7 | 33.8 | 0.00 | 0.00 | 0.00 | 10 | 1006.8 |
| 20260509202420 | 32 | 0 | 14.5 | 27.4 | 0.00 | 0.00 | 0.00 | 12 | 1006.7 |
| 20260509201921 | 32 | 0 | 17.7 | 37.0 | 0.00 | 0.00 | 0.00 | 11 | 1006.6 |
| 20260509201421 | 32 | 0 | 17.7 | 37.0 | 0.00 | 0.00 | 0.00 | 11 | 1006.6 |
| 20260509200915 | 32 | 0 | 16.1 | 30.6 | 0.00 | 0.00 | 0.00 | 10 | 1006.5 |
| 20260509200413 | 32 | 0 | 16.1 | 30.6 | 0.00 | 0.00 | 0.00 | 10 | 1006.7 |
| 20260509200143 | 32 | 0 | 14.5 | 25.7 | 0.00 | 0.00 | 0.00 | 13 | 1006.8 |
| 20260509195411 | 32 | 0 | 12.9 | 27.4 | 0.00 | 0.00 | 0.00 | 13 | 1006.8 |
| 20260509194912 | 32 | 0 | 12.9 | 27.4 | 0.00 | 0.00 | 0.00 | 13 | 1007.0 |
| 20260509194409 | 32 | 0 | 16.1 | 32.2 | 0.00 | 0.00 | 0.00 | 13 | 1007.0 |
| 20260509193909 | 32 | 0 | 12.9 | 32.2 | 0.00 | 0.00 | 0.00 | 13 | 1007.0 |
| 20260509193406 | 32 | 0 | 12.9 | 29.0 | 0.00 | 0.00 | 0.00 | 13 | 1007.0 |
| 20260509192909 | 31 | 0 | 9.7 | 20.9 | 0.00 | 0.00 | 0.00 | 16 | 1007.1 |
| 20260509192905 | 31 | 0 | 12.9 | 29.0 | 0.00 | 0.00 | 0.00 | 14 | 1007.2 |
| 20260509191900 | 31 | 0 | 14.5 | 27.4 | 0.00 | 0.00 | 0.00 | 15 | 1007.3 |
| 20260509191358 | 31 | 0 | 17.7 | 32.2 | 0.00 | 0.00 | 0.00 | 15 | 1007.3 |
| 20260509191126 | 31 | 0 | 14.5 | 32.2 | 0.00 | 0.00 | 0.00 | 16 | 1007.3 |
| 20260509190623 | 31 | 0 | 12.9 | 24.1 | 0.00 | 0.00 | 0.00 | 17 | 1007.4 |
| 20260509185849 | 31 | 0 | 14.5 | 24.1 | 0.00 | 0.00 | 0.00 | 17 | 1007.5 |
| 20260509185349 | 30 | 0 | 16.1 | 29.0 | 0.00 | 0.00 | 0.00 | 17 | 1007.6 |
| 20260509184844 | 30 | 0 | 14.5 | 29.0 | 0.00 | 0.00 | 0.00 | 17 | 1007.7 |
| 20260509184344 | 30 | 0 | 14.5 | 25.7 | 0.00 | 0.00 | 0.00 | 16 | 1007.8 |
| 20260509183842 | 30 | 0 | 14.5 | 25.7 | 0.00 | 0.00 | 0.00 | 16 | 1007.9 |
| 20260509183338 | 30 | 0 | 14.5 | 29.0 | 0.00 | 0.00 | 0.00 | 17 | 1008.0 |
| 20260509182834 | 30 | 0 | 16.1 | 32.2 | 0.00 | 0.00 | 0.00 | 17 | 1008.1 |
| 20260509182604 | 30 | 0 | 16.1 | 33.8 | 0.00 | 0.00 | 0.00 | 17 | 1008.1 |
| 20260509181834 | 30 | 0 | 16.1 | 33.8 | 0.00 | 0.00 | 0.00 | 17 | 1008.3 |
| 20260509181332 | 30 | 0 | 17.7 | 29.0 | 0.00 | 0.00 | 0.00 | 18 | 1008.3 |
| 20260509180833 | 30 | 0 | 16.1 | 29.0 | 0.00 | 0.00 | 0.00 | 18 | 1008.4 |
| 20260509180333 | 30 | 0 | 12.9 | 22.5 | 0.00 | 0.00 | 0.00 | 19 | 1008.5 |
| 20260509175832 | 30 | 0 | 14.5 | 25.7 | 0.00 | 0.00 | 0.00 | 20 | 1008.7 |
| 20260509175332 | 29 | 0 | 14.5 | 25.7 | 0.00 | 0.00 | 0.00 | 21 | 1009.0 |
| 20260509175103 | 29 | 0 | 16.1 | 32.2 | 0.00 | 0.00 | 0.00 | 20 | 1009.1 |
| 20260509174333 | 29 | 0 | 17.7 | 32.2 | 0.00 | 0.00 | 0.00 | 21 | 1009.3 |
| 20260509173832 | 29 | 0 | 16.1 | 32.2 | 0.00 | 0.00 | 0.00 | 21 | 1009.3 |
| 20260509173335 | 28 | 0 | 16.1 | 32.2 | 0.00 | 0.00 | 0.00 | 23 | 1009.5 |
| 20260509173331 | 29 | 0 | 14.5 | 29.0 | 0.00 | 0.00 | 0.00 | 22 | 1009.3 |
| 20260509172559 | 28 | 0 | 14.5 | 32.2 | 0.00 | 0.00 | 0.00 | 25 | 1009.6 |
| 20260509171828 | 28 | 0 | 14.5 | 29.0 | 0.00 | 0.00 | 0.00 | 25 | 1009.7 |
| 20260509171557 | 28 | 0 | 16.1 | 29.0 | 0.00 | 0.00 | 0.00 | 25 | 1009.6 |
| 20260509170828 | 28 | 0 | 14.5 | 27.4 | 0.00 | 0.00 | 0.00 | 26 | 1009.7 |
| 20260509170557 | 28 | 0 | 14.5 | 25.7 | 0.00 | 0.00 | 0.00 | 27 | 1009.7 |
| 20260509165827 | 27 | 0 | 12.9 | 25.7 | 0.00 | 0.00 | 0.00 | 28 | 1009.9 |
| 20260509165326 | 27 | 0 | 12.9 | 25.7 | 0.00 | 0.00 | 0.00 | 28 | 1010.0 |
| 20260509164827 | 27 | 0 | 16.1 | 27.4 | 0.00 | 0.00 | 0.00 | 28 | 1010.2 |
| 20260509164325 | 27 | 0 | 16.1 | 27.4 | 0.00 | 0.00 | 0.00 | 28 | 1010.1 |
| 20260509163824 | 27 | 0 | 14.5 | 25.7 | 0.00 | 0.00 | 0.00 | 30 | 1010.1 |
| 20260509163323 | 27 | 0 | 14.5 | 30.6 | 0.00 | 0.00 | 0.00 | 31 | 1010.1 |
| 20260509162819 | 26 | 0 | 12.9 | 30.6 | 0.00 | 0.00 | 0.00 | 31 | 1010.4 |
| 20260509162316 | 26 | 0 | 12.9 | 32.2 | 0.00 | 0.00 | 0.00 | 31 | 1010.4 |
| 20260509161819 | 26 | 0 | 12.9 | 27.4 | 0.00 | 0.00 | 0.00 | 33 | 1010.5 |
| 20260509161815 | 26 | 0 | 14.5 | 32.2 | 0.00 | 0.00 | 0.00 | 33 | 1010.5 |
| 20260509160811 | 26 | 0 | 12.9 | 27.4 | 0.00 | 0.00 | 0.00 | 34 | 1010.5 |
| 20260509160310 | 26 | 0 | 14.5 | 27.4 | 0.00 | 0.00 | 0.00 | 35 | 1010.5 |
| 20260509155805 | 25 | 0 | 16.1 | 27.4 | 0.00 | 0.00 | 0.00 | 36 | 1010.5 |
| 20260509155306 | 25 | 0 | 16.1 | 29.0 | 0.00 | 0.00 | 0.00 | 36 | 1010.5 |
| 20260509154803 | 25 | 0 | 16.1 | 29.0 | 0.00 | 0.00 | 0.00 | 36 | 1010.4 |
| 20260509154302 | 25 | 0 | 17.7 | 30.6 | 0.00 | 0.00 | 0.00 | 35 | 1010.6 |
| 20260509153802 | 25 | 0 | 14.5 | 30.6 | 0.00 | 0.00 | 0.00 | 35 | 1010.7 |
| 20260509153301 | 25 | 0 | 12.9 | 29.0 | 0.00 | 0.00 | 0.00 | 37 | 1010.8 |
| 20260509152800 | 24 | 0 | 14.5 | 25.7 | 0.00 | 0.00 | 0.00 | 39 | 1010.8 |
| 20260509152256 | 23 | 0 | 17.7 | 29.0 | 0.00 | 0.00 | 0.00 | 41 | 1010.8 |
| 20260509152026 | 23 | 0 | 17.7 | 30.6 | 0.00 | 0.00 | 0.00 | 43 | 1010.9 |
| 20260509151254 | 23 | 0 | 14.5 | 30.6 | 0.00 | 0.00 | 0.00 | 45 | 1011.1 |
| 20260509151023 | 23 | 0 | 12.9 | 24.1 | 0.00 | 0.00 | 0.00 | 48 | 1011.1 |
| 20260509150517 | 22 | 0 | 11.3 | 24.1 | 0.00 | 0.00 | 0.00 | 50 | 1011.1 |
| 20260509145746 | 22 | 0 | 11.3 | 17.7 | 0.00 | 0.00 | 0.00 | 51 | 1011.2 |
| 20260509145514 | 21 | 0 | 9.7 | 16.1 | 0.00 | 0.00 | 0.00 | 51 | 1011.4 |
| 20260509144743 | 21 | 0 | 8.0 | 14.5 | 0.00 | 0.00 | 0.00 | 51 | 1011.5 |
| 20260509144234 | 21 | 0 | 8.0 | 16.1 | 0.00 | 0.00 | 0.00 | 50 | 1011.5 |
| 20260509143735 | 20 | 0 | 9.7 | 19.3 | 0.00 | 0.00 | 0.00 | 51 | 1011.5 |
| 20260509143233 | 20 | 0 | 11.3 | 19.3 | 0.00 | 0.00 | 0.00 | 51 | 1011.7 |